Location: Unnamed
(23.5608°S, 46.6833°W)
Time: 03:07:18
(UTC-03:00)

CAS-4B - Visible Passes

Search period start: 23 July 2024 00:00
Search period end: 02 August 2024 00:00
Orbit: 468 x 485 km, 43.0° (Epoch: 22 July)

Date Brightness Start Highest point End Pass type
(mag) Time Alt. Az. Time Alt. Az. Time Alt. Az.
23 Jul ? 19:18:27 10° WNW 19:21:57 57° SW 19:21:57 57° SW visible
24 Jul ? 18:48:37 10° WNW 18:52:17 63° SW 18:53:58 30° SE visible
25 Jul ? 18:18:45 10° WNW 18:22:26 69° SW 18:25:52 12° SE visible
26 Jul ? 19:30:21 10° SW 19:31:44 12° SSW 19:31:46 12° SSW visible
27 Jul ? 19:00:07 10° SW 19:01:43 12° SSW 19:03:21 10° S visible
28 Jul ? 18:29:51 10° SW 18:31:40 13° SSW 18:33:31 10° S visible
